Regional Weather Roundup
Issued by NWS

Home | Current Version | Previous Version | Text Only | Print | Product List | Glossary Off
Versions: 1 2 3 4 5 6 7 8 9 10 11 12 13 14 15 16 17 18 19 20 21 22 23 24 25 26 27 28 29 30 31 32 33 34 35 36 37 38 39 40 41 42 43 44 45 46 47 48 49 50

000
ASUS43 KMKX 270411
RWRWI

WISCONSIN REGIONAL WEATHER ROUNDUP
NATIONAL WEATHER SERVICE MILWAUKEE/SULLIVAN WI
1100 PM CDT WED JUL 26 2017

NOTE: "FAIR" INDICATES FEW OR NO CLOUDS BELOW 12,000 FEET WITH NO
SIGNIFICANT WEATHER AND/OR OBSTRUCTIONS TO VISIBILITY.

WIZ001-002-006>008-014>016-023>028-270500-
NORTHWEST WISCONSIN

CITY           SKY/WX    TMP DP  RH WIND       PRES   REMARKS
SUPERIOR ARPT  NOT AVBL
ASHLAND        CLEAR     62  59  90 CALM      30.00R
HAYWARD        CLEAR     63  60  90 CALM      30.03R
SIREN          CLEAR     65  63  90 CALM      30.03R
CUMBERLAND     CLEAR     63  61  94 CALM      30.03S
RICE LAKE      CLEAR     64  63  95 CALM      30.03S
CHETEK         CLEAR     65  64  98 CALM      30.02S
LADYSMITH      CLEAR     64  62  93 CALM      30.04R
EAU CLAIRE     CLEAR     65  63  93 CALM      30.00R
MENOMONIE      CLEAR     67  65  91 CALM      30.01S
NEW RICHMOND   CLEAR     65  63  91 CALM      30.02S
OSCEOLA        CLEAR     64  64 100 CALM      30.05R
$$

WIZ003>005-009-010-017-018-270500-
NORTH CENTRAL WISCONSIN

CITY           SKY/WX    TMP DP  RH WIND       PRES   REMARKS
MANITOWISH WTR PTCLDY    56  56 100 CALM      30.03S
ARBOR VITAE    CLEAR     62  60  93 CALM      30.03S
WOODRUFF       CLEAR     62  60  93 CALM      30.03S
RHINELANDER    CLEAR     59  58  96 CALM      30.03S
EAGLE RIVER    CLEAR     56  56 100 CALM      30.02S
LAND O LAKES   CLEAR     55  54  97 CALM      30.04S
PHILLIPS       CLEAR     60  60 100 CALM      30.02S
TOMAHAWK         N/A     57  56  95 CALM      30.03S
MEDFORD        CLEAR     61  61  97 CALM      30.02S
MERRILL        PTCLDY    64  64 100 CALM      30.02S FOG
$$

WIZ029-030-035-036-043>047-270500-
CENTRAL WISCONSIN

CITY           SKY/WX    TMP DP  RH WIND       PRES   REMARKS
WAUSAU         CLEAR     68  67  96 NW3       29.99S
MOSINEE        PTCLDY    68  68 100 W5        30.02R
MARSHFIELD     CLEAR     66  64  93 NW3       30.00S FOG
STEVENS POINT  CLEAR     65  65 100 CALM      30.01R FOG
WAUPACA        CLOUDY    74  72  91 CALM      29.98S
WAUTOMA        CLOUDY    71  70  96 CALM      29.99S
WISC RAPIDS    FOG       67  67 100 N5        30.01R VSB 1/2
CAMP DOUGLAS   MOCLDY    70  70 100 N3        29.99S
$$

WIZ011>013-019>022-031-037>040-048>050-270500-
NORTHEAST WISCONSIN

CITY           SKY/WX    TMP DP  RH WIND       PRES   REMARKS
ANTIGO         MOCLDY    67  61  81 CALM      30.03S
SHAWANO        PTCLDY    72  69  89 W3        29.97S
OCONTO         CLOUDY    69  68  98 CALM      29.95S
STURGEON BAY     N/A     72  70  93 W3        29.97R
GREEN BAY      CLOUDY    73  73 100 SW5       29.97R
MANITOWOC      LGT RAIN  72  69  90 SW14      29.97F
APPLETON       CLOUDY    72  72 100 SW3       29.97R
CLINTONVILLE   CLEAR    N/A N/A N/A CALM      29.98S
OSHKOSH        CLOUDY    71  69  93 S8        29.97F
$$

WIZ032>034-041-042-053>061-270500-
SOUTHWEST WISCONSIN

CITY           SKY/WX    TMP DP  RH WIND       PRES   REMARKS
LA CROSSE      MOCLDY    76  73  91 N5        29.97S
SPARTA         MOCLDY    69  68  95 CALM      30.00S
VIROQUA        MOCLDY    71  71 100 CALM      30.01S
BOSCOBEL       FOG       71  69  93 CALM      29.97F VSB 3/4
PRAIRIE DU CHI CLOUDY    73  70  91 CALM      29.96F
PLATTEVILLE    CLOUDY    72  72 100 NE5       29.98S
$$

WIZ056-057-062-063-064-067-068-270500-
SOUTH CENTRAL WISCONSIN

CITY           SKY/WX    TMP DP  RH WIND       PRES   REMARKS
REEDSBURG      CLOUDY    70  70 100 N3        29.99R
BARABOO/DELLS  FOG       69  68  95 CALM      29.99S VSB<1/4
LONE ROCK      FOG       70  70 100 CALM      29.97S VSB 1/2
MINERAL POINT  MOCLDY    72  72 100 N5        29.99S
MADISON        CLOUDY    71  70  96 CALM      29.98S
MIDDLETON      CLOUDY    70  70 100 CALM      29.99S VSB 1/4
WATERTOWN      CLOUDY    71  71 100 CALM      29.98R
MONROE         CLOUDY    70  70 100 CALM      29.98S
JANESVILLE     CLOUDY    72  72 100 S7        29.96F FOG
$$

WIZ051-052-058>065-066-070>072-270500-
SOUTHEAST WISCONSIN

CITY           SKY/WX    TMP DP  RH WIND       PRES   REMARKS
MILWAUKEE      CLOUDY    74  70  87 S3        29.96F
WAUKESHA       CLOUDY    70  68  94 S3        29.98F
MILWAUKEE/TIMM CLOUDY    70  66  88 CALM      29.97S
RACINE         CLOUDY    74  71  91 S5        29.97F
KENOSHA        LGT RAIN  74  70  87 SW5       29.98R
FOND DU LAC    LGT RAIN  72  69  90 N5        29.99R
SHEBOYGAN      CLOUDY    70  70 100 CALM      29.98S FOG
WEST BEND      CLOUDY    70  70 100 CALM      29.98S
JUNEAU         CLOUDY    70  70  99 CALM      29.99S FOG
$$

LSZ147-162-270500-
LAKE SUPERIOR

STATION/POSITION TIME  TEMP    WIND        PRES    WAVE
                       AIR SEA DIR/SP/G            HT/PER
                 (UTC) (F)     (DEG/KT/KT) (MB)    (FT/S)
W MID LAKE BUOY  0350   58 52  290/  6/  8 1014.9R   1
DEVILS ISLAND    0400   71     320/  9/ 11 1015.4R
SAXON HARBOR     0340   65     190/  3/  4 1014.9R
$$

LMZ867-665-643>646-270500-
LAKE MICHIGAN

STATION/POSITION TIME  TEMP    WIND        PRES    WAVE
                       AIR SEA DIR/SP/G            HT/PER
                 (UTC) (F)     (DEG/KT/KT) (MB)    (FT/S)
CHAMBERS ISLAND  0340   71      20/  7/  9 1013.9R
S GREEN BAY BUOY 0400   72 71  240/  4/  4 1014.2R
N MID LAKE BUOY  0350   67 65  240/  2/  2 1014.8S   2/ 5
NORTHPORT PIER   0340   71      90/  4/  5 1014.2R
KEWAUNEE LAKESHO 0348   71     240/  2/  4 1013.8R
SHEBOYGAN LAKESH 0400   72     280/  2/  2 1014.4S
PORT WASHINGTON  0330   72     210/  6/  7 1015.6S
ATWATER BUOY     0309   70 69  180/  4/  6 1014.8F
MILWAUKEE LAKESH 0350   71     210/  2/  2   N/A
S MID LAKE BUOY  0350   73 70  150/ 10/ 10 1014.5F   1
KENOSHA   LAKESH 0400   75     250/  4/  5 1014.6
$$

TC  - TEMPERATURE IN CELSIUS
VSB - VISIBILITY IN STATUTE MILES
WCI - WIND CHILL INDEX
HX  - HEAT INDEX





USA.gov is the U.S. government's official web portal to all federal, state and local government web resources and services.